| time (UTC) | temp F | wind direction | speed knots | gust knots | rain 1hr in | rain 24hr in | rain mn in | humidity % | barometer mb |
| 20260505201121 | 73 | 251 | 5.2 | 9.6 | 0.00 | 0.00 | 0.00 | 64 | 1006.8 |
| 20260505200122 | 74 | 258 | 6.1 | 9.6 | 0.00 | 0.00 | 0.00 | 63 | 1006.8 |
| 20260505195143 | 76 | 257 | 4.3 | 7.8 | 0.00 | 0.00 | 0.00 | 61 | 1007.0 |
| 20260505194121 | 76 | 264 | 5.2 | 10.4 | 0.00 | 0.00 | 0.00 | 61 | 1007.2 |
| 20260505193121 | 76 | 24 | 5.2 | 10.4 | 0.00 | 0.00 | 0.00 | 61 | 1007.2 |
| 20260505192123 | 76 | 245 | 6.1 | 10.4 | 0.00 | 0.00 | 0.00 | 61 | 1007.6 |
| 20260505191142 | 76 | 267 | 4.3 | 8.7 | 0.00 | 0.00 | 0.00 | 61 | 1008.0 |
| 20260505190143 | 76 | 261 | 5.2 | 7.8 | 0.00 | 0.00 | 0.00 | 61 | 1008.0 |
| 20260505185123 | 76 | 205 | 5.2 | 9.6 | 0.00 | 0.00 | 0.00 | 62 | 1008.0 |
| 20260505184143 | 77 | 196 | 2.6 | 5.2 | 0.00 | 0.00 | 0.00 | 60 | 1008.2 |
| 20260505183121 | 76 | 262 | 3.5 | 6.1 | 0.00 | 0.00 | 0.00 | 62 | 1008.2 |
| 20260505182124 | 75 | 217 | 3.5 | 7.0 | 0.00 | 0.00 | 0.00 | 64 | 1008.4 |
| 20260505181122 | 74 | 183 | 4.3 | 7.8 | 0.00 | 0.00 | 0.00 | 65 | 1008.5 |
| 20260505180143 | 75 | 278 | 4.3 | 9.6 | 0.00 | 0.00 | 0.00 | 63 | 1008.4 |
| 20260505175122 | 75 | 241 | 4.3 | 6.1 | 0.00 | 0.00 | 0.00 | 64 | 1008.4 |
| 20260505174122 | 75 | 262 | 4.3 | 10.4 | 0.00 | 0.00 | 0.00 | 64 | 1008.7 |
| 20260505173123 | 76 | 256 | 3.5 | 7.8 | 0.00 | 0.00 | 0.00 | 63 | 1008.6 |
| 20260505172121 | 76 | 261 | 3.5 | 6.1 | 0.00 | 0.00 | 0.00 | 63 | 1008.6 |
| 20260505171122 | 76 | 227 | 3.5 | 7.0 | 0.00 | 0.00 | 0.00 | 64 | 1008.8 |
| 20260505170144 | 78 | 257 | 4.3 | 7.0 | 0.00 | 0.00 | 0.00 | 60 | 1008.8 |
| 20260505165143 | 78 | 215 | 3.5 | 7.8 | 0.00 | 0.00 | 0.00 | 60 | 1008.7 |
| 20260505164144 | 79 | 211 | 2.6 | 5.2 | 0.00 | 0.00 | 0.00 | 60 | 1008.8 |
| 20260505163125 | 78 | 202 | 2.6 | 5.2 | 0.00 | 0.00 | 0.00 | 60 | 1009.0 |
| 20260505162121 | 77 | 210 | 3.5 | 4.3 | 0.00 | 0.00 | 0.00 | 62 | 1009.1 |
| 20260505161121 | 77 | 147 | 3.5 | 5.2 | 0.00 | 0.00 | 0.00 | 62 | 1009.2 |
| 20260505160143 | 76 | 118 | 2.6 | 4.3 | 0.00 | 0.00 | 0.00 | 64 | 1009.2 |
| 20260505153122 | 74 | 205 | 2.6 | 4.3 | 0.00 | 0.00 | 0.00 | 66 | 1009.6 |
| 20260505152125 | 74 | 105 | 3.5 | 6.1 | 0.00 | 0.00 | 0.00 | 67 | 1009.6 |
| 20260505151121 | 74 | 194 | 2.6 | 5.2 | 0.00 | 0.00 | 0.00 | 66 | 1009.8 |
| 20260505150121 | 74 | 260 | 3.5 | 6.1 | 0.00 | 0.00 | 0.00 | 64 | 1009.8 |
| 20260505140122 | 71 | 251 | 3.5 | 6.1 | 0.00 | 0.00 | 0.00 | 68 | 1009.7 |
| 20260505130121 | 68 | 268 | 3.5 | 7.0 | 0.00 | 0.00 | 0.00 | 73 | 1009.5 |
| 20260505124121 | 67 | 214 | 2.6 | 5.2 | 0.00 | 0.00 | 0.00 | 76 | 1009.4 |
| 20260505123122 | 66 | 246 | 2.6 | 4.3 | 0.00 | 0.00 | 0.00 | 79 | 1009.2 |
| 20260505122121 | 64 | 235 | 1.7 | 3.5 | 0.00 | 0.00 | 0.00 | 83 | 1009.4 |
| 20260505121122 | 62 | 249 | 1.7 | 2.6 | 0.00 | 0.00 | 0.00 | 88 | 1009.4 |
| 20260505120142 | 62 | 197 | 0.9 | 1.7 | 0.00 | 0.00 | 0.00 | 88 | 1009.4 |
| 20260505115121 | 60 | 140 | 0.9 | 1.7 | 0.00 | 0.00 | 0.00 | 90 | 1009.7 |
| 20260505114121 | 60 | 169 | 0.9 | 1.7 | 0.00 | 0.00 | 0.00 | 92 | 1009.7 |
| 20260505113144 | 59 | 161 | 0.0 | 1.7 | 0.00 | 0.00 | 0.00 | 94 | 1009.5 |
| 20260505112142 | 58 | 136 | 0.0 | 1.7 | 0.00 | 0.00 | 0.00 | 95 | 1009.6 |
| 20260505111121 | 58 | 248 | 0.0 | 0.0 | 0.00 | 0.00 | 0.00 | 96 | 1009.6 |
| 20260505110122 | 55 | 173 | 0.9 | 2.6 | 0.00 | 0.00 | 0.00 | 99 | 1009.6 |
| 20260505102123 | 50 | 225 | 0.0 | 1.7 | 0.00 | 0.00 | 0.00 | 99 | 1009.1 |
| 20260505101122 | 50 | 166 | 0.0 | 1.7 | 0.00 | 0.00 | 0.00 | 99 | 1009.0 |
| 20260505100122 | 50 | 224 | 0.0 | 1.7 | 0.00 | 0.00 | 0.00 | 99 | 1009.0 |
| 20260505095122 | 50 | 108 | 0.0 | 1.7 | 0.00 | 0.00 | 0.00 | 99 | 1008.6 |
| 20260505094124 | 50 | 113 | 0.0 | 0.0 | 0.00 | 0.00 | 0.00 | 99 | 1008.7 |
| 20260505093123 | 50 | 158 | 0.0 | 0.0 | 0.00 | 0.00 | 0.00 | 99 | 1008.8 |
| 20260505092121 | 50 | 161 | 0.0 | 1.7 | 0.00 | 0.00 | 0.00 | 99 | 1008.7 |
| 20260505091142 | 51 | 113 | 0.0 | 0.0 | 0.00 | 0.00 | 0.00 | 99 | 1008.8 |
| 20260505090121 | 51 | 180 | 0.0 | 0.0 | 0.00 | 0.00 | 0.00 | 99 | 1008.8 |
| 20260505085121 | 51 | 243 | 0.9 | 1.7 | 0.00 | 0.00 | 0.00 | 99 | 1008.7 |
| 20260505084121 | 51 | 153 | 0.9 | 1.7 | 0.00 | 0.00 | 0.00 | 99 | 1008.6 |
| 20260505083121 | 52 | 176 | 0.0 | 2.6 | 0.00 | 0.00 | 0.00 | 99 | 1008.7 |
| 20260505082121 | 52 | 209 | 0.0 | 1.7 | 0.00 | 0.00 | 0.00 | 99 | 1008.7 |
| 20260505081121 | 52 | 223 | 0.9 | 2.6 | 0.00 | 0.00 | 0.00 | 99 | 1008.7 |
| 20260505080142 | 52 | 247 | 0.0 | 1.7 | 0.00 | 0.00 | 0.00 | 99 | 1008.7 |
| 20260505075121 | 52 | 242 | 0.9 | 1.7 | 0.00 | 0.00 | 0.00 | 99 | 1008.6 |
| 20260505074121 | 53 | 214 | 0.9 | 2.6 | 0.00 | 0.00 | 0.00 | 99 | 1008.6 |
| 20260505073121 | 53 | 227 | 1.7 | 2.6 | 0.00 | 0.00 | 0.00 | 99 | 1008.6 |
| 20260505072122 | 53 | 209 | 1.7 | 2.6 | 0.00 | 0.00 | 0.00 | 99 | 1008.6 |
| 20260505071123 | 53 | 172 | 1.7 | 3.5 | 0.00 | 0.00 | 0.00 | 99 | 1008.6 |
| 20260505070122 | 53 | 182 | 1.7 | 5.2 | 0.00 | 0.00 | 0.00 | 99 | 1008.6 |
| 20260505065122 | 53 | 253 | 1.7 | 4.3 | 0.00 | 0.00 | 0.00 | 99 | 1008.6 |
| 20260505064122 | 53 | 202 | 1.7 | 3.5 | 0.00 | 0.00 | 0.00 | 99 | 1008.6 |
| 20260505063123 | 53 | 202 | 0.9 | 2.6 | 0.00 | 0.00 | 0.00 | 99 | 1008.8 |
| 20260505062122 | 53 | 215 | 1.7 | 2.6 | 0.00 | 0.00 | 0.00 | 99 | 1008.8 |
| 20260505061122 | 53 | 202 | 1.7 | 3.5 | 0.00 | 0.00 | 0.00 | 99 | 1008.9 |
| 20260505060123 | 53 | 149 | 0.9 | 2.6 | 0.00 | 0.00 | 0.00 | 99 | 1008.9 |
| 20260505055143 | 53 | 178 | 0.9 | 3.5 | 0.00 | 0.00 | 0.00 | 99 | 1008.9 |
| 20260505054122 | 54 | 198 | 1.7 | 3.5 | 0.00 | 0.00 | 0.00 | 99 | 1009.0 |
| 20260505053122 | 54 | 225 | 1.7 | 2.6 | 0.00 | 0.00 | 0.00 | 99 | 1009.1 |
| 20260505052122 | 54 | 215 | 0.9 | 2.6 | 0.00 | 0.00 | 0.00 | 99 | 1009.1 |
| 20260505051121 | 54 | 190 | 0.9 | 2.6 | 0.00 | 0.00 | 0.00 | 98 | 1009.2 |
| 20260505050123 | 54 | 215 | 0.9 | 2.6 | 0.00 | 0.00 | 0.00 | 97 | 1009.2 |
| 20260505041121 | 57 | 237 | 0.9 | 2.6 | 0.00 | 0.00 | 0.00 | 87 | 1009.4 |
| 20260505040121 | 57 | 244 | 1.7 | 2.6 | 0.00 | 0.00 | 0.00 | 86 | 1009.4 |
| 20260505035142 | 57 | 244 | 1.7 | 5.2 | 0.00 | 0.00 | 0.00 | 85 | 1009.4 |
| 20260505034125 | 57 | 236 | 2.6 | 5.2 | 0.00 | 0.00 | 0.00 | 85 | 1009.2 |
| 20260505033123 | 58 | 245 | 2.6 | 4.3 | 0.00 | 0.00 | 0.00 | 85 | 1009.2 |
| 20260505032143 | 57 | 232 | 2.6 | 4.3 | 0.00 | 0.00 | 0.00 | 85 | 1009.5 |
| 20260505031123 | 58 | 197 | 2.6 | 5.2 | 0.00 | 0.00 | 0.00 | 85 | 1009.5 |
| 20260505030121 | 57 | 230 | 2.6 | 4.3 | 0.00 | 0.00 | 0.00 | 86 | 1009.5 |
| 20260505025121 | 57 | 230 | 1.7 | 4.3 | 0.00 | 0.00 | 0.00 | 87 | 1009.6 |
| 20260505024122 | 57 | 220 | 1.7 | 4.3 | 0.00 | 0.00 | 0.00 | 87 | 1009.7 |
| 20260505023143 | 57 | 257 | 2.6 | 5.2 | 0.00 | 0.00 | 0.00 | 87 | 1009.6 |
| 20260505022124 | 57 | 157 | 0.9 | 3.5 | 0.00 | 0.00 | 0.00 | 87 | 1009.7 |
| 20260505021124 | 57 | 230 | 1.7 | 3.5 | 0.00 | 0.00 | 0.00 | 87 | 1009.6 |
| 20260505020122 | 57 | 192 | 0.9 | 3.5 | 0.00 | 0.00 | 0.00 | 86 | 1009.6 |
| 20260505015143 | 57 | 262 | 1.7 | 3.5 | 0.00 | 0.00 | 0.00 | 85 | 1009.6 |
| 20260505014122 | 58 | 215 | 2.6 | 4.3 | 0.00 | 0.00 | 0.00 | 83 | 1009.6 |
| 20260505013122 | 58 | 227 | 1.7 | 4.3 | 0.00 | 0.00 | 0.00 | 83 | 1009.5 |
| 20260505012121 | 58 | 243 | 1.7 | 4.3 | 0.00 | 0.00 | 0.00 | 83 | 1009.2 |
| 20260505011122 | 58 | 228 | 1.7 | 4.3 | 0.00 | 0.00 | 0.00 | 82 | 1009.1 |
| 20260505010121 | 58 | 246 | 2.6 | 5.2 | 0.00 | 0.00 | 0.00 | 83 | 1009.0 |
| 20260505005123 | 58 | 248 | 2.6 | 6.1 | 0.00 | 0.00 | 0.00 | 84 | 1009.0 |
| 20260505004121 | 58 | 239 | 2.6 | 6.1 | 0.00 | 0.00 | 0.00 | 83 | 1008.9 |
| 20260505003121 | 58 | 229 | 3.5 | 7.0 | 0.00 | 0.00 | 0.00 | 83 | 1008.6 |
| 20260505002121 | 59 | 244 | 3.5 | 7.8 | 0.00 | 0.00 | 0.00 | 81 | 1008.5 |
| 20260505001121 | 59 | 256 | 2.6 | 5.2 | 0.00 | 0.00 | 0.00 | 79 | 1008.4 |
| 20260505000122 | 59 | 255 | 2.6 | 6.1 | 0.00 | 0.00 | 0.00 | 79 | 1008.4 |
| 20260504235125 | 59 | 261 | 2.6 | 6.1 | 0.00 | 0.00 | 0.00 | 80 | 1008.2 |
| 20260504234142 | 59 | 196 | 2.6 | 5.2 | 0.00 | 0.00 | 0.00 | 79 | 1008.0 |
| 20260504233121 | 59 | 249 | 3.5 | 7.8 | 0.00 | 0.00 | 0.00 | 79 | 1008.0 |
| 20260504232121 | 60 | 209 | 3.5 | 6.1 | 0.00 | 0.00 | 0.00 | 77 | 1008.0 |
| 20260504231123 | 60 | 251 | 4.3 | 7.0 | 0.00 | 0.00 | 0.00 | 76 | 1007.9 |
| 20260504230124 | 60 | 238 | 2.6 | 5.2 | 0.00 | 0.00 | 0.00 | 76 | 1007.9 |
| 20260504225122 | 60 | 251 | 3.5 | 6.1 | 0.00 | 0.00 | 0.00 | 75 | 1008.0 |
| 20260504224121 | 61 | 228 | 3.5 | 7.0 | 0.00 | 0.00 | 0.00 | 73 | 1007.9 |
| 20260504223127 | 62 | 303 | 3.5 | 7.0 | 0.00 | 0.00 | 0.00 | 72 | 1007.9 |
| 20260504222148 | 63 | 241 | 3.5 | 6.1 | 0.00 | 0.00 | 0.00 | 70 | 1008.1 |
| 20260504221143 | 64 | 211 | 3.5 | 6.1 | 0.00 | 0.00 | 0.00 | 68 | 1008.2 |
| 20260504220123 | 64 | 262 | 3.5 | 7.8 | 0.00 | 0.00 | 0.00 | 67 | 1008.2 |
| 20260504215122 | 64 | 223 | 4.3 | 8.7 | 0.00 | 0.00 | 0.00 | 66 | 1008.2 |
| 20260504214147 | 64 | 251 | 4.3 | 9.6 | 0.00 | 0.00 | 0.00 | 65 | 1008.2 |
| 20260504213122 | 65 | 252 | 4.3 | 7.8 | 0.00 | 0.00 | 0.00 | 63 | 1008.4 |
| 20260504212120 | 67 | 247 | 4.3 | 7.8 | 0.00 | 0.00 | 0.00 | 60 | 1008.4 |
| 20260504211121 | 67 | 227 | 3.5 | 7.0 | 0.00 | 0.00 | 0.00 | 61 | 1008.2 |
| 20260504210123 | 67 | 186 | 5.2 | 10.4 | 0.00 | 0.00 | 0.00 | 59 | 1008.2 |
| 20260504205142 | 69 | 210 | 5.2 | 8.7 | 0.00 | 0.00 | 0.00 | 56 | 1008.2 |
| 20260504204143 | 70 | 242 | 3.5 | 7.0 | 0.00 | 0.00 | 0.00 | 56 | 1008.2 |
| 20260504203122 | 72 | 217 | 4.3 | 7.0 | 0.00 | 0.00 | 0.00 | 56 | 1008.2 |
| 20260504202121 | 71 | 222 | 3.5 | 6.1 | 0.00 | 0.00 | 0.00 | 55 | 1008.2 |